This is the latest recevied weather packets stored in our database for station/object DO2MIB-1. If no packets are shown the sender has not sent any weather packets the latest 10 day(s).
| Time | Temp. | Humidity | Pressure | Rain* | Wind** | Luminosity | Snow |
|---|---|---|---|---|---|---|---|
| 1778344131 | 25° C | 26% | 0 hPa | - | 0 m/s | - | - |
| 1778344048 | 25.56° C | 27% | 0 hPa | - | 0 m/s | - | - |
| 1778344015 | 25.56° C | 28% | 0 hPa | - | 0 m/s | - | - |
| 1778343767 | 22.78° C | 28% | 0 hPa | - | 0 m/s | - | - |
| 1778343651 | 23.33° C | 27% | 0 hPa | - | 0 m/s | - | - |
| 1778343568 | 25° C | 27% | 0 hPa | - | 0 m/s | - | - |
| 1778343502 | 23.33° C | 26% | 0 hPa | - | 0 m/s | - | - |
| 1778343402 | 26.11° C | 24% | 0 hPa | - | 0 m/s | - | - |
| 1778343386 | 23.89° C | 28% | 0 hPa | - | 0 m/s | - | - |
| 1778342939 | 25.56° C | 26% | 0 hPa | - | 0 m/s | - | - |
| 1778342823 | 26.11° C | 26% | 0 hPa | - | 0 m/s | - | - |
| 1778342740 | 26.11° C | 25% | 0 hPa | - | 0 m/s | - | - |
| 1778342061 | 26.11° C | 26% | 0 hPa | - | 0 m/s | - | - |
| 1778341946 | 26.11° C | 25% | 0 hPa | - | 0 m/s | - | - |
| 1778341581 | 25.56° C | 28% | 0 hPa | - | 0 m/s | - | - |
| 1778341465 | 25.56° C | 27% | 0 hPa | - | 0 m/s | - | - |
| 1778341432 | 25.56° C | 27% | 0 hPa | - | 0 m/s | - | - |
| 1778341267 | 25.56° C | 26% | 0 hPa | - | 0 m/s | - | - |
| 1778341200 | 26.11° C | 27% | 0 hPa | - | 0 m/s | - | - |
| 1778341101 | 23.33° C | 26% | 0 hPa | - | 0 m/s | - | - |
| 1778341051 | 25.56° C | 27% | 0 hPa | - | 0 m/s | - | - |
| 1778340951 | 23.33° C | 25% | 0 hPa | - | 0 m/s | - | - |
| 1778340869 | 25° C | 27% | 0 hPa | - | 0 m/s | - | - |
| 1778340670 | 26.11° C | 26% | 0 hPa | - | 0 m/s | - | - |
| 1778340223 | 25.56° C | 27% | 0 hPa | - | 0 m/s | - | - |
* Rain since midnight (hover to see other rain measurements)
** Current wind speed in m/s (hover to see current wind gust speed)